Year,Month,Day,Hour,Minute,Value (Times are PST for temperature in C)
2015,02,17,00,00,0.60
2015,02,17,00,01,0.60
2015,02,17,00,02,0.60
2015,02,17,00,03,0.50
2015,02,17,00,04,0.50
2015,02,17,00,05,0.50
2015,02,17,00,06,0.50
2015,02,17,00,07,0.50
2015,02,17,00,08,0.50
2015,02,17,00,09,0.50
2015,02,17,00,10,0.50
2015,02,17,00,11,0.40
2015,02,17,00,12,0.40
2015,02,17,00,13,0.40
2015,02,17,00,14,0.40
2015,02,17,00,15,0.40
2015,02,17,00,16,0.40
2015,02,17,00,17,0.40
2015,02,17,00,18,0.40
2015,02,17,00,19,0.40
2015,02,17,00,20,0.40
2015,02,17,00,21,0.40
2015,02,17,00,22,0.30
2015,02,17,00,23,0.30
2015,02,17,00,24,0.30
2015,02,17,00,25,0.30
2015,02,17,00,26,0.30
2015,02,17,00,27,0.30
2015,02,17,00,28,0.30
2015,02,17,00,29,0.30
2015,02,17,00,30,0.30
2015,02,17,00,31,0.30
2015,02,17,00,32,0.30
2015,02,17,00,33,0.30
2015,02,17,00,34,0.30
2015,02,17,00,35,0.30
2015,02,17,00,36,0.30
2015,02,17,00,37,0.30
2015,02,17,00,38,0.30
2015,02,17,00,39,0.30
2015,02,17,00,40,0.30
2015,02,17,00,41,0.30
2015,02,17,00,42,0.30
2015,02,17,00,43,0.30
2015,02,17,00,44,0.30
2015,02,17,00,45,0.30
2015,02,17,00,46,0.30
2015,02,17,00,47,0.20
2015,02,17,00,48,0.20
2015,02,17,00,49,0.20
2015,02,17,00,50,0.20
2015,02,17,00,51,0.20
2015,02,17,00,52,0.20
2015,02,17,00,53,0.20
2015,02,17,00,54,0.10
2015,02,17,00,55,0.10
2015,02,17,00,56,0.10
2015,02,17,00,57,0.10
2015,02,17,00,58,0.10
2015,02,17,00,59,0.10
2015,02,17,01,00,0.10
2015,02,17,01,01,0.10
2015,02,17,01,02,0.10
2015,02,17,01,03,0.10
2015,02,17,01,04,0.10
2015,02,17,01,05,0.10
2015,02,17,01,06,0.00
2015,02,17,01,07,0.00
2015,02,17,01,08,0.00
2015,02,17,01,09,0.00
2015,02,17,01,10,0.00
2015,02,17,01,11,0.00
2015,02,17,01,12,-0.10
2015,02,17,01,13,-0.10
2015,02,17,01,14,-0.10
2015,02,17,01,15,-0.10
2015,02,17,01,16,-0.10
2015,02,17,01,17,-0.10
2015,02,17,01,18,-0.10
2015,02,17,01,19,-0.10
2015,02,17,01,20,-0.10
2015,02,17,01,21,-0.10
2015,02,17,01,22,-0.10
2015,02,17,01,23,-0.10
2015,02,17,01,24,-0.10
2015,02,17,01,25,-0.10
2015,02,17,01,26,-0.10
2015,02,17,01,27,-0.10
2015,02,17,01,28,-0.10
2015,02,17,01,29,-0.10
2015,02,17,01,30,-0.10
2015,02,17,01,31,-0.10
2015,02,17,01,32,-0.10
2015,02,17,01,33,-0.10
2015,02,17,01,34,-0.10
2015,02,17,01,35,-0.10
2015,02,17,01,36,-0.10
2015,02,17,01,37,-0.10
2015,02,17,01,38,-0.20
2015,02,17,01,39,-0.20
2015,02,17,01,40,-0.20
2015,02,17,01,41,-0.20
2015,02,17,01,42,-0.20
2015,02,17,01,43,-0.20
2015,02,17,01,44,-0.20
2015,02,17,01,45,-0.20
2015,02,17,01,46,-0.20
2015,02,17,01,47,-0.20
2015,02,17,01,48,-0.20
2015,02,17,01,49,-0.20
2015,02,17,01,50,-0.20
2015,02,17,01,51,-0.20
2015,02,17,01,52,-0.20
2015,02,17,01,53,-0.20
2015,02,17,01,54,-0.20
2015,02,17,01,55,-0.20
2015,02,17,01,56,-0.20
2015,02,17,01,57,-0.20
2015,02,17,01,58,-0.20
2015,02,17,01,59,-0.20
2015,02,17,02,00,-0.20
2015,02,17,02,01,-0.20
2015,02,17,02,02,-0.30
2015,02,17,02,03,-0.30
2015,02,17,02,04,-0.30
2015,02,17,02,05,-0.30
2015,02,17,02,06,-0.30
2015,02,17,02,07,-0.30
2015,02,17,02,08,-0.30
2015,02,17,02,09,-0.30
2015,02,17,02,10,-0.30
2015,02,17,02,11,-0.30
2015,02,17,02,12,-0.30
2015,02,17,02,13,-0.30
2015,02,17,02,14,-0.30
2015,02,17,02,15,-0.30
2015,02,17,02,16,-0.30
2015,02,17,02,17,-0.30
2015,02,17,02,18,-0.30
2015,02,17,02,19,-0.30
2015,02,17,02,20,-0.40
2015,02,17,02,21,-0.30
2015,02,17,02,22,-0.40
2015,02,17,02,23,-0.30
2015,02,17,02,24,-0.30
2015,02,17,02,25,-0.30
2015,02,17,02,26,-0.30
2015,02,17,02,27,-0.30
2015,02,17,02,28,-0.30
2015,02,17,02,29,-0.30
2015,02,17,02,30,-0.30
2015,02,17,02,31,-0.30
2015,02,17,02,32,-0.30
2015,02,17,02,33,-0.30
2015,02,17,02,34,-0.30
2015,02,17,02,35,-0.30
2015,02,17,02,36,-0.30
2015,02,17,02,37,-0.30
2015,02,17,02,38,-0.30
2015,02,17,02,39,-0.30
2015,02,17,02,40,-0.30
2015,02,17,02,41,-0.30
2015,02,17,02,42,-0.30
2015,02,17,02,43,-0.30
2015,02,17,02,44,-0.30
2015,02,17,02,45,-0.30
2015,02,17,02,46,-0.30
2015,02,17,02,47,-0.30
2015,02,17,02,48,-0.30
2015,02,17,02,49,-0.30
2015,02,17,02,50,-0.30
2015,02,17,02,51,-0.30
2015,02,17,02,52,-0.30
2015,02,17,02,53,-0.30
2015,02,17,02,54,-0.30
2015,02,17,02,55,-0.30
2015,02,17,02,56,-0.30
2015,02,17,02,57,-0.30
2015,02,17,02,58,-0.30
2015,02,17,02,59,-0.30
2015,02,17,03,00,-0.40
2015,02,17,03,01,-0.40
2015,02,17,03,02,-0.40
2015,02,17,03,03,-0.40
2015,02,17,03,04,-0.40
2015,02,17,03,05,-0.40
2015,02,17,03,06,-0.40
2015,02,17,03,07,-0.50
2015,02,17,03,08,-0.50
2015,02,17,03,09,-0.50
2015,02,17,03,10,-0.50
2015,02,17,03,11,-0.50
2015,02,17,03,12,-0.50
2015,02,17,03,13,-0.50
2015,02,17,03,14,-0.50
2015,02,17,03,15,-0.50
2015,02,17,03,16,-0.50
2015,02,17,03,17,-0.50
2015,02,17,03,18,-0.60
2015,02,17,03,19,-0.60
2015,02,17,03,20,-0.60
2015,02,17,03,21,-0.60
2015,02,17,03,22,-0.60
2015,02,17,03,23,-0.60
2015,02,17,03,24,-0.60
2015,02,17,03,25,-0.60
2015,02,17,03,26,-0.60
2015,02,17,03,27,-0.60
2015,02,17,03,28,-0.60
2015,02,17,03,29,-0.60
2015,02,17,03,30,-0.60
2015,02,17,03,31,-0.70
2015,02,17,03,32,-0.70
2015,02,17,03,33,-0.70
2015,02,17,03,34,-0.70
2015,02,17,03,35,-0.70
2015,02,17,03,36,-0.70
2015,02,17,03,37,-0.70
2015,02,17,03,38,-0.70
2015,02,17,03,39,-0.70
2015,02,17,03,40,-0.70
2015,02,17,03,41,-0.70
2015,02,17,03,42,-0.70
2015,02,17,03,43,-0.70
2015,02,17,03,44,-0.60
2015,02,17,03,45,-0.60
2015,02,17,03,46,-0.60
2015,02,17,03,47,-0.60
2015,02,17,03,48,-0.60
2015,02,17,03,49,-0.70
2015,02,17,03,50,-0.60
2015,02,17,03,51,-0.60
2015,02,17,03,52,-0.70
2015,02,17,03,53,-0.60
2015,02,17,03,54,-0.70
2015,02,17,03,55,-0.70
2015,02,17,03,56,-0.70
2015,02,17,03,57,-0.70
2015,02,17,03,58,-0.70
2015,02,17,03,59,-0.70
2015,02,17,04,00,-0.70
2015,02,17,04,01,-0.70
2015,02,17,04,02,-0.70
2015,02,17,04,03,-0.70
2015,02,17,04,04,-0.70
2015,02,17,04,05,-0.70
2015,02,17,04,06,-0.70
2015,02,17,04,07,-0.70
2015,02,17,04,08,-0.70
2015,02,17,04,09,-0.70
2015,02,17,04,10,-0.70
2015,02,17,04,11,-0.70
2015,02,17,04,12,-0.70
2015,02,17,04,13,-0.70
2015,02,17,04,14,-0.80
2015,02,17,04,15,-0.80
2015,02,17,04,16,-0.80
2015,02,17,04,17,-0.80
2015,02,17,04,18,-0.80
2015,02,17,04,19,-0.80
2015,02,17,04,20,-0.80
2015,02,17,04,21,-0.80
2015,02,17,04,22,-0.80
2015,02,17,04,23,-0.80
2015,02,17,04,24,-0.80
2015,02,17,04,25,-0.90
2015,02,17,04,26,-0.90
2015,02,17,04,27,-0.90
2015,02,17,04,28,-0.90
2015,02,17,04,29,-0.90
2015,02,17,04,30,-0.90
2015,02,17,04,31,-0.90
2015,02,17,04,32,-0.90
2015,02,17,04,33,-0.90
2015,02,17,04,34,-1.00
2015,02,17,04,35,-1.00
2015,02,17,04,36,-1.00
2015,02,17,04,37,-1.00
2015,02,17,04,38,-1.00
2015,02,17,04,39,-1.00
2015,02,17,04,40,-1.00
2015,02,17,04,41,-1.00
2015,02,17,04,42,-1.00
2015,02,17,04,43,-1.10
2015,02,17,04,44,-1.10
2015,02,17,04,45,-1.10
2015,02,17,04,46,-1.10
2015,02,17,04,47,-1.10
2015,02,17,04,48,-1.10
2015,02,17,04,49,-1.10
2015,02,17,04,50,-1.10
2015,02,17,04,51,-1.10
2015,02,17,04,52,-1.00
2015,02,17,04,53,-1.10
2015,02,17,04,54,-1.00
2015,02,17,04,55,-1.00
2015,02,17,04,56,-1.00
2015,02,17,04,57,-1.00
2015,02,17,04,58,-1.00
2015,02,17,04,59,-1.00
2015,02,17,05,00,-1.00
2015,02,17,05,01,-1.00
2015,02,17,05,02,-1.00
2015,02,17,05,03,-1.00
2015,02,17,05,04,-0.90
2015,02,17,05,05,-1.00
2015,02,17,05,06,-1.00
2015,02,17,05,07,-1.00
2015,02,17,05,08,-1.00
2015,02,17,05,09,-1.00
2015,02,17,05,10,-1.00
2015,02,17,05,11,-1.00
2015,02,17,05,12,-1.00
2015,02,17,05,13,-1.00
2015,02,17,05,14,-1.00
2015,02,17,05,15,-1.00
2015,02,17,05,16,-1.00
2015,02,17,05,17,-1.00
2015,02,17,05,18,-1.00
2015,02,17,05,19,-1.00
2015,02,17,05,20,-1.00
2015,02,17,05,21,-1.00
2015,02,17,05,22,-1.00
2015,02,17,05,23,-1.00
2015,02,17,05,24,-1.00
2015,02,17,05,25,-1.00
2015,02,17,05,26,-1.00
2015,02,17,05,27,-1.00
2015,02,17,05,28,-1.00
2015,02,17,05,29,-1.10
2015,02,17,05,30,-1.10
2015,02,17,05,31,-1.10
2015,02,17,05,32,-1.10
2015,02,17,05,33,-1.10
2015,02,17,05,34,-1.10
2015,02,17,05,35,-1.10
2015,02,17,05,36,-1.10
2015,02,17,05,37,-1.10
2015,02,17,05,38,-1.10
2015,02,17,05,39,-1.10
2015,02,17,05,40,-1.10
2015,02,17,05,41,-1.10
2015,02,17,05,42,-1.10
2015,02,17,05,43,-1.10
2015,02,17,05,44,-1.10
2015,02,17,05,45,-1.10
2015,02,17,05,46,-1.10
2015,02,17,05,47,-1.10
2015,02,17,05,48,-1.10
2015,02,17,05,49,-1.10
2015,02,17,05,50,-1.10
2015,02,17,05,51,-1.10
2015,02,17,05,52,-1.10
2015,02,17,05,53,-1.10
2015,02,17,05,54,-1.20
2015,02,17,05,55,-1.20
2015,02,17,05,56,-1.20
2015,02,17,05,57,-1.20
2015,02,17,05,58,-1.20
2015,02,17,05,59,-1.20
2015,02,17,06,00,-1.20
2015,02,17,06,01,-1.20
2015,02,17,06,02,-1.20
2015,02,17,06,03,-1.20
2015,02,17,06,04,-1.20
2015,02,17,06,05,-1.20
2015,02,17,06,06,-1.20
2015,02,17,06,07,-1.20
2015,02,17,06,08,-1.20
2015,02,17,06,09,-1.20
2015,02,17,06,10,-1.20
2015,02,17,06,11,-1.20
2015,02,17,06,12,-1.20
2015,02,17,06,13,-1.20
2015,02,17,06,14,-1.20
2015,02,17,06,15,-1.20
2015,02,17,06,16,-1.20
2015,02,17,06,17,-1.20
2015,02,17,06,18,-1.30
2015,02,17,06,19,-1.30
2015,02,17,06,20,-1.30
2015,02,17,06,21,-1.30
2015,02,17,06,22,-1.30
2015,02,17,06,23,-1.30
2015,02,17,06,24,-1.30
2015,02,17,06,25,-1.30
2015,02,17,06,26,-1.30
2015,02,17,06,27,-1.30
2015,02,17,06,28,-1.30
2015,02,17,06,29,-1.30
2015,02,17,06,30,-1.30
2015,02,17,06,31,-1.30
2015,02,17,06,32,-1.30
2015,02,17,06,33,-1.30
2015,02,17,06,34,-1.30
2015,02,17,06,35,-1.30
2015,02,17,06,36,-1.30
2015,02,17,06,37,-1.30
2015,02,17,06,38,-1.30
2015,02,17,06,39,-1.30
2015,02,17,06,40,-1.30
2015,02,17,06,41,-1.30
2015,02,17,06,42,-1.30
2015,02,17,06,43,-1.30
2015,02,17,06,44,-1.30
2015,02,17,06,45,-1.30
2015,02,17,06,46,-1.30
2015,02,17,06,47,-1.40
2015,02,17,06,48,-1.30
2015,02,17,06,49,-1.40
2015,02,17,06,50,-1.40
2015,02,17,06,51,-1.40
2015,02,17,06,52,-1.40
2015,02,17,06,53,-1.40
2015,02,17,06,54,-1.40
2015,02,17,06,55,-1.40
2015,02,17,06,56,-1.40
2015,02,17,06,57,-1.40
2015,02,17,06,58,-1.40
2015,02,17,06,59,-1.30
2015,02,17,07,00,-1.30
2015,02,17,07,01,-1.30
2015,02,17,07,02,-1.30
2015,02,17,07,03,-1.30
2015,02,17,07,04,-1.30
2015,02,17,07,05,-1.30
2015,02,17,07,06,-1.30
2015,02,17,07,07,-1.30
2015,02,17,07,08,-1.30
2015,02,17,07,09,-1.30
2015,02,17,07,10,-1.30
2015,02,17,07,11,-1.30
2015,02,17,07,12,-1.30
2015,02,17,07,13,-1.30
2015,02,17,07,14,-1.30
2015,02,17,07,15,-1.30
2015,02,17,07,16,-1.30
2015,02,17,07,17,-1.30
2015,02,17,07,18,-1.30
2015,02,17,07,19,-1.30
2015,02,17,07,20,-1.30
2015,02,17,07,21,-1.30
2015,02,17,07,22,-1.30
2015,02,17,07,23,-1.30
2015,02,17,07,24,-1.30
2015,02,17,07,25,-1.30
2015,02,17,07,26,-1.30
2015,02,17,07,27,-1.30
2015,02,17,07,28,-1.30
2015,02,17,07,29,-1.30
2015,02,17,07,30,-1.30
2015,02,17,07,31,-1.30
2015,02,17,07,32,-1.30
2015,02,17,07,33,-1.30
2015,02,17,07,34,-1.30
2015,02,17,07,35,-1.30
2015,02,17,07,36,-1.30
2015,02,17,07,37,-1.30
2015,02,17,07,38,-1.30
2015,02,17,07,39,-1.30
2015,02,17,07,40,-1.30
2015,02,17,07,41,-1.30
2015,02,17,07,42,-1.30
2015,02,17,07,43,-1.40
2015,02,17,07,44,-1.40
2015,02,17,07,45,-1.40
2015,02,17,07,46,-1.40
2015,02,17,07,47,-1.40
2015,02,17,07,48,-1.40
2015,02,17,07,49,-1.40
2015,02,17,07,50,-1.40
2015,02,17,07,51,-1.40
2015,02,17,07,52,-1.40
2015,02,17,07,53,-1.40
2015,02,17,07,54,-1.40
2015,02,17,07,55,-1.40
2015,02,17,07,56,-1.40
2015,02,17,07,57,-1.40
2015,02,17,07,58,-1.40
2015,02,17,07,59,-1.40
2015,02,17,08,00,-1.40
2015,02,17,08,01,-1.40
2015,02,17,08,02,-1.40
2015,02,17,08,03,-1.40
2015,02,17,08,04,-1.40
2015,02,17,08,05,-1.40
2015,02,17,08,06,-1.40
2015,02,17,08,07,-1.40
2015,02,17,08,08,-1.40
2015,02,17,08,09,-1.40
2015,02,17,08,10,-1.40
2015,02,17,08,11,-1.40
2015,02,17,08,12,-1.40
2015,02,17,08,13,-1.40
2015,02,17,08,14,-1.40
2015,02,17,08,15,-1.30
2015,02,17,08,16,-1.30
2015,02,17,08,17,-1.30
2015,02,17,08,18,-1.30
2015,02,17,08,19,-1.30
2015,02,17,08,20,-1.30
2015,02,17,08,21,-1.30
2015,02,17,08,22,-1.30
2015,02,17,08,23,-1.20
2015,02,17,08,24,-1.20
2015,02,17,08,25,-1.20
2015,02,17,08,26,-1.20
2015,02,17,08,27,-1.20
2015,02,17,08,28,-1.20
2015,02,17,08,29,-1.20
2015,02,17,08,30,-1.20
2015,02,17,08,31,-1.20
2015,02,17,08,32,-1.20
2015,02,17,08,33,-1.20
2015,02,17,08,34,-1.20
2015,02,17,08,35,-1.20
2015,02,17,08,36,-1.20
2015,02,17,08,37,-1.20
2015,02,17,08,38,-1.20
2015,02,17,08,39,-1.20
2015,02,17,08,40,-1.20
2015,02,17,08,41,-1.20
2015,02,17,08,42,-1.20
2015,02,17,08,43,-1.20
2015,02,17,08,44,-1.10
2015,02,17,08,45,-1.10
2015,02,17,08,46,-1.10
2015,02,17,08,47,-1.10
2015,02,17,08,48,-1.00
2015,02,17,08,49,-1.00
2015,02,17,08,50,-0.90
2015,02,17,08,51,-0.90
2015,02,17,08,52,-0.90
2015,02,17,08,53,-0.80
2015,02,17,08,54,-0.80
2015,02,17,08,55,-0.80
2015,02,17,08,56,-0.80
2015,02,17,08,57,-0.80
2015,02,17,08,58,-0.80
2015,02,17,08,59,-0.80
2015,02,17,09,00,-0.80
2015,02,17,09,01,-0.70
2015,02,17,09,02,-0.70
2015,02,17,09,03,-0.70
2015,02,17,09,04,-0.70
2015,02,17,09,05,-0.60
2015,02,17,09,06,-0.60
2015,02,17,09,07,-0.60
2015,02,17,09,08,-0.60
2015,02,17,09,09,-0.50
2015,02,17,09,10,-0.50
2015,02,17,09,11,-0.50
2015,02,17,09,12,-0.40
2015,02,17,09,13,-0.40
2015,02,17,09,14,-0.40
2015,02,17,09,15,-0.30
2015,02,17,09,16,-0.30
2015,02,17,09,17,-0.30
2015,02,17,09,18,-0.20
2015,02,17,09,19,-0.20
2015,02,17,09,20,-0.20
2015,02,17,09,21,-0.20
2015,02,17,09,22,-0.10
2015,02,17,09,23,-0.10
2015,02,17,09,24,0.00
2015,02,17,09,25,0.00
2015,02,17,09,26,0.10
2015,02,17,09,27,0.10
2015,02,17,09,28,0.20
2015,02,17,09,29,0.20
2015,02,17,09,30,0.30
2015,02,17,09,31,0.30
2015,02,17,09,32,0.30
2015,02,17,09,33,0.40
2015,02,17,09,34,0.40
2015,02,17,09,35,0.40
2015,02,17,09,36,0.50
2015,02,17,09,37,0.60
2015,02,17,09,38,0.60
2015,02,17,09,39,0.70
2015,02,17,09,40,0.70
2015,02,17,09,41,0.80
2015,02,17,09,42,0.80
2015,02,17,09,43,0.90
2015,02,17,09,44,1.00
2015,02,17,09,45,1.10
2015,02,17,09,46,1.10
2015,02,17,09,47,1.20
2015,02,17,09,48,1.30
2015,02,17,09,49,1.40
2015,02,17,09,50,1.50
2015,02,17,09,51,1.60
2015,02,17,09,52,1.70
2015,02,17,09,53,1.80
2015,02,17,09,54,1.80
2015,02,17,09,55,1.90
2015,02,17,09,56,1.80
2015,02,17,09,57,1.80
2015,02,17,09,58,1.80
2015,02,17,09,59,1.80
2015,02,17,10,00,1.80
2015,02,17,10,01,1.80
2015,02,17,10,02,1.80
2015,02,17,10,03,1.80
2015,02,17,10,04,1.80
2015,02,17,10,05,1.80
2015,02,17,10,06,1.80
2015,02,17,10,07,1.80
2015,02,17,10,08,1.80
2015,02,17,10,09,1.80
2015,02,17,10,10,1.80
2015,02,17,10,11,1.90
2015,02,17,10,12,1.90
2015,02,17,10,13,2.00
2015,02,17,10,14,2.10
2015,02,17,10,15,2.20
2015,02,17,10,16,2.30
2015,02,17,10,17,2.50
2015,02,17,10,18,2.60
2015,02,17,10,19,2.70
2015,02,17,10,20,2.80
2015,02,17,10,21,2.90
2015,02,17,10,22,3.00
2015,02,17,10,23,3.00
2015,02,17,10,24,3.10
2015,02,17,10,25,3.20
2015,02,17,10,26,3.30
2015,02,17,10,27,3.40
2015,02,17,10,28,3.50
2015,02,17,10,29,3.50
2015,02,17,10,30,3.60
2015,02,17,10,31,3.60
2015,02,17,10,32,3.70
2015,02,17,10,33,3.70
2015,02,17,10,34,3.70
2015,02,17,10,35,3.70
2015,02,17,10,36,3.70
2015,02,17,10,37,3.70
2015,02,17,10,38,3.70
2015,02,17,10,39,3.70
2015,02,17,10,40,3.80
2015,02,17,10,41,3.80
2015,02,17,10,42,3.80
2015,02,17,10,43,3.90
2015,02,17,10,44,3.90
2015,02,17,10,45,3.90
2015,02,17,10,46,4.00
2015,02,17,10,47,4.00
2015,02,17,10,48,4.10
2015,02,17,10,49,4.20
2015,02,17,10,50,4.20
2015,02,17,10,51,4.30
2015,02,17,10,52,4.40
2015,02,17,10,53,4.50
2015,02,17,10,54,4.50
2015,02,17,10,55,4.60
2015,02,17,10,56,4.70
2015,02,17,10,57,4.80
2015,02,17,10,58,4.80
2015,02,17,10,59,4.90
2015,02,17,11,00,5.00
2015,02,17,11,01,5.10
2015,02,17,11,02,5.20
2015,02,17,11,03,5.30
2015,02,17,11,04,5.30
2015,02,17,11,05,5.40
2015,02,17,11,06,5.40
2015,02,17,11,07,5.50
2015,02,17,11,08,5.50
2015,02,17,11,09,5.60
2015,02,17,11,10,5.70
2015,02,17,11,11,5.80
2015,02,17,11,12,5.90
2015,02,17,11,13,6.00
2015,02,17,11,14,6.00
2015,02,17,11,15,6.00
2015,02,17,11,16,6.00
2015,02,17,11,17,6.10
2015,02,17,11,18,6.10
2015,02,17,11,19,6.10
2015,02,17,11,20,6.10
2015,02,17,11,21,6.10
2015,02,17,11,22,6.10
2015,02,17,11,23,6.10
2015,02,17,11,24,6.10
2015,02,17,11,25,6.10
2015,02,17,11,26,6.10
2015,02,17,11,27,6.10
2015,02,17,11,28,6.10
2015,02,17,11,29,6.10
2015,02,17,11,30,6.20
2015,02,17,11,31,6.20
2015,02,17,11,32,6.30
2015,02,17,11,33,6.30
2015,02,17,11,34,6.40
2015,02,17,11,35,6.40
2015,02,17,11,36,6.40
2015,02,17,11,37,6.50
2015,02,17,11,38,6.50
2015,02,17,11,39,6.60
2015,02,17,11,40,6.70
2015,02,17,11,41,6.80
2015,02,17,11,42,6.90
2015,02,17,11,43,7.00
2015,02,17,11,44,7.10
2015,02,17,11,45,7.30
2015,02,17,11,46,7.40
2015,02,17,11,47,7.60
2015,02,17,11,48,7.70
2015,02,17,11,49,7.80
2015,02,17,11,50,7.90
2015,02,17,11,51,8.00
2015,02,17,11,52,8.00
2015,02,17,11,53,8.10
2015,02,17,11,54,8.10
2015,02,17,11,55,8.10
2015,02,17,11,56,8.20
2015,02,17,11,57,8.20
2015,02,17,11,58,8.30
2015,02,17,11,59,8.30
2015,02,17,12,00,8.40
2015,02,17,12,01,8.50
2015,02,17,12,02,8.50
2015,02,17,12,03,8.60
2015,02,17,12,04,8.70
2015,02,17,12,05,8.80
2015,02,17,12,06,8.80
2015,02,17,12,07,8.90
2015,02,17,12,08,8.90
2015,02,17,12,09,8.90
2015,02,17,12,10,8.90
2015,02,17,12,11,8.90
2015,02,17,12,12,8.90
2015,02,17,12,13,8.90
2015,02,17,12,14,8.90
2015,02,17,12,15,8.90
2015,02,17,12,16,8.80
2015,02,17,12,17,8.80
2015,02,17,12,18,8.80
2015,02,17,12,19,8.80
2015,02,17,12,20,8.80
2015,02,17,12,21,8.80
2015,02,17,12,22,8.80
2015,02,17,12,23,8.80
2015,02,17,12,24,8.90
2015,02,17,12,25,8.90
2015,02,17,12,26,8.90
2015,02,17,12,27,9.00
2015,02,17,12,28,9.00
2015,02,17,12,29,9.00
2015,02,17,12,30,9.00
2015,02,17,12,31,9.10
2015,02,17,12,32,9.10
2015,02,17,12,33,9.10
2015,02,17,12,34,9.20
2015,02,17,12,35,9.20
2015,02,17,12,36,9.20
2015,02,17,12,37,9.30
2015,02,17,12,38,9.30
2015,02,17,12,39,9.30
2015,02,17,12,40,9.40
2015,02,17,12,41,9.50
2015,02,17,12,42,9.50
2015,02,17,12,43,9.60
2015,02,17,12,44,9.60
2015,02,17,12,45,9.70
2015,02,17,12,46,9.70
2015,02,17,12,47,9.70
2015,02,17,12,48,9.80
2015,02,17,12,49,9.80
2015,02,17,12,50,9.90
2015,02,17,12,51,9.90
2015,02,17,12,52,10.00
2015,02,17,12,53,10.00
2015,02,17,12,54,10.10
2015,02,17,12,55,10.10
2015,02,17,12,56,10.20
2015,02,17,12,57,10.20
2015,02,17,12,58,10.30
2015,02,17,12,59,10.40
2015,02,17,13,00,10.50
2015,02,17,13,01,10.50
2015,02,17,13,02,10.60
2015,02,17,13,03,10.70
2015,02,17,13,04,10.70
2015,02,17,13,05,10.80
2015,02,17,13,06,10.90
2015,02,17,13,07,11.00
2015,02,17,13,08,11.00
2015,02,17,13,09,11.10
2015,02,17,13,10,11.20
2015,02,17,13,11,11.30
2015,02,17,13,12,11.30
2015,02,17,13,13,11.30
2015,02,17,13,14,11.30
2015,02,17,13,15,11.40
2015,02,17,13,16,11.40
2015,02,17,13,17,11.40
2015,02,17,13,18,11.50
2015,02,17,13,19,11.60
2015,02,17,13,20,11.70
2015,02,17,13,21,11.70
2015,02,17,13,22,11.80
2015,02,17,13,23,11.80
2015,02,17,13,24,11.90
2015,02,17,13,25,12.00
2015,02,17,13,26,12.00
2015,02,17,13,27,12.10
2015,02,17,13,28,12.20
2015,02,17,13,29,12.30
2015,02,17,13,30,12.30
2015,02,17,13,31,12.40
2015,02,17,13,32,12.50
2015,02,17,13,33,12.50
2015,02,17,13,34,12.50
2015,02,17,13,35,12.50
2015,02,17,13,36,12.40
2015,02,17,13,37,12.40
2015,02,17,13,38,12.40
2015,02,17,13,39,12.40
2015,02,17,13,40,12.40
2015,02,17,13,41,12.50
2015,02,17,13,42,12.50
2015,02,17,13,43,12.50
2015,02,17,13,44,12.50
2015,02,17,13,45,12.50
2015,02,17,13,46,12.50
2015,02,17,13,47,12.50
2015,02,17,13,48,12.50
2015,02,17,13,49,12.60
2015,02,17,13,50,12.60
2015,02,17,13,51,12.60
2015,02,17,13,52,12.60
2015,02,17,13,53,12.60
2015,02,17,13,54,12.70
2015,02,17,13,55,12.70
2015,02,17,13,56,12.70
2015,02,17,13,57,12.70
2015,02,17,13,58,12.80
2015,02,17,13,59,12.90
2015,02,17,14,00,12.90
2015,02,17,14,01,13.00
2015,02,17,14,02,13.10
2015,02,17,14,03,13.10
2015,02,17,14,04,13.20
2015,02,17,14,05,13.20
2015,02,17,14,06,13.20
2015,02,17,14,07,13.20
2015,02,17,14,08,13.20
2015,02,17,14,09,13.20
2015,02,17,14,10,13.20
2015,02,17,14,11,13.20
2015,02,17,14,12,13.30
2015,02,17,14,13,13.30
2015,02,17,14,14,13.30
2015,02,17,14,15,13.30
2015,02,17,14,16,13.40
2015,02,17,14,17,13.40
2015,02,17,14,18,13.40
2015,02,17,14,19,13.40
2015,02,17,14,20,13.40
2015,02,17,14,21,13.50
2015,02,17,14,22,13.50
2015,02,17,14,23,13.50
2015,02,17,14,24,13.50
2015,02,17,14,25,13.60
2015,02,17,14,26,13.60
2015,02,17,14,27,13.60
2015,02,17,14,28,13.60
2015,02,17,14,29,13.60
2015,02,17,14,30,13.60
2015,02,17,14,31,13.70
2015,02,17,14,32,13.70
2015,02,17,14,33,13.70
2015,02,17,14,34,13.80
2015,02,17,14,35,13.80
2015,02,17,14,36,13.80
2015,02,17,14,37,13.90
2015,02,17,14,38,13.90
2015,02,17,14,39,14.00
2015,02,17,14,40,14.10
2015,02,17,14,41,14.20
2015,02,17,14,42,14.30
2015,02,17,14,43,14.40
2015,02,17,14,44,14.40
2015,02,17,14,45,14.50
2015,02,17,14,46,14.50
2015,02,17,14,47,14.60
2015,02,17,14,48,14.60
2015,02,17,14,49,14.70
2015,02,17,14,50,14.70
2015,02,17,14,51,14.80
2015,02,17,14,52,14.80
2015,02,17,14,53,14.80
2015,02,17,14,54,14.90
2015,02,17,14,55,15.00
2015,02,17,14,56,15.00
2015,02,17,14,57,15.10
2015,02,17,14,58,15.10
2015,02,17,14,59,15.10
2015,02,17,15,00,15.10
2015,02,17,15,01,15.10
2015,02,17,15,02,15.00
2015,02,17,15,03,15.00
2015,02,17,15,04,14.90
2015,02,17,15,05,14.80
2015,02,17,15,06,14.70
2015,02,17,15,07,14.60
2015,02,17,15,08,14.60
2015,02,17,15,09,14.60
2015,02,17,15,10,14.50
2015,02,17,15,11,14.50
2015,02,17,15,12,14.50
2015,02,17,15,13,14.40
2015,02,17,15,14,14.40
2015,02,17,15,15,14.40
2015,02,17,15,16,14.40
2015,02,17,15,17,14.40
2015,02,17,15,18,14.40
2015,02,17,15,19,14.30
2015,02,17,15,20,14.30
2015,02,17,15,21,14.30
2015,02,17,15,22,14.30
2015,02,17,15,23,14.20
2015,02,17,15,24,14.20
2015,02,17,15,25,14.20
2015,02,17,15,26,14.20
2015,02,17,15,27,14.20
2015,02,17,15,28,14.20
2015,02,17,15,29,14.20
2015,02,17,15,30,14.20
2015,02,17,15,31,14.20
2015,02,17,15,32,14.20
2015,02,17,15,33,14.10
2015,02,17,15,34,14.10
2015,02,17,15,35,14.10
2015,02,17,15,36,14.10
2015,02,17,15,37,14.10
2015,02,17,15,38,14.00
2015,02,17,15,39,14.00
2015,02,17,15,40,13.90
2015,02,17,15,41,13.90
2015,02,17,15,42,13.90
2015,02,17,15,43,13.80
2015,02,17,15,44,13.80
2015,02,17,15,45,13.80
2015,02,17,15,46,13.70
2015,02,17,15,47,13.70
2015,02,17,15,48,13.70
2015,02,17,15,49,13.60
2015,02,17,15,50,13.50
2015,02,17,15,51,13.50
2015,02,17,15,52,13.40
2015,02,17,15,53,13.30
2015,02,17,15,54,13.20
2015,02,17,15,55,13.10
2015,02,17,15,56,13.00
2015,02,17,15,57,12.90
2015,02,17,15,58,12.80
2015,02,17,15,59,12.80
2015,02,17,16,00,12.70
2015,02,17,16,01,12.70
2015,02,17,16,02,12.60
2015,02,17,16,03,12.60
2015,02,17,16,04,12.50
2015,02,17,16,05,12.40
2015,02,17,16,06,12.40
2015,02,17,16,07,12.40
2015,02,17,16,08,12.40
2015,02,17,16,09,12.40
2015,02,17,16,10,12.40
2015,02,17,16,11,12.40
2015,02,17,16,12,12.40
2015,02,17,16,13,12.40
2015,02,17,16,14,12.30
2015,02,17,16,15,12.30
2015,02,17,16,16,12.20
2015,02,17,16,17,12.00
2015,02,17,16,18,11.90
2015,02,17,16,19,11.80
2015,02,17,16,20,11.70
2015,02,17,16,21,11.60
2015,02,17,16,22,11.50
2015,02,17,16,23,11.40
2015,02,17,16,24,11.30
2015,02,17,16,25,11.10
2015,02,17,16,26,11.00
2015,02,17,16,27,10.90
2015,02,17,16,28,10.80
2015,02,17,16,29,10.80
2015,02,17,16,30,10.70
2015,02,17,16,31,10.70
2015,02,17,16,32,10.60
2015,02,17,16,33,10.50
2015,02,17,16,34,10.50
2015,02,17,16,35,10.40
2015,02,17,16,36,10.30
2015,02,17,16,37,10.30
2015,02,17,16,38,10.20
2015,02,17,16,39,10.10
2015,02,17,16,40,10.00
2015,02,17,16,41,9.90
2015,02,17,16,42,9.80
2015,02,17,16,43,9.70
2015,02,17,16,44,9.60
2015,02,17,16,45,9.60
2015,02,17,16,46,9.50
2015,02,17,16,47,9.40
2015,02,17,16,48,9.30
2015,02,17,16,49,9.30
2015,02,17,16,50,9.30
2015,02,17,16,51,9.20
2015,02,17,16,52,9.20
2015,02,17,16,53,9.20
2015,02,17,16,54,9.20
2015,02,17,16,55,9.10
2015,02,17,16,56,9.10
2015,02,17,16,57,9.10
2015,02,17,16,58,9.10
2015,02,17,16,59,9.10
2015,02,17,17,00,9.10
2015,02,17,17,01,9.00
2015,02,17,17,02,9.00
2015,02,17,17,03,8.90
2015,02,17,17,04,8.90
2015,02,17,17,05,8.90
2015,02,17,17,06,8.90
2015,02,17,17,07,8.90
2015,02,17,17,08,8.80
2015,02,17,17,09,8.80
2015,02,17,17,10,8.80
2015,02,17,17,11,8.80
2015,02,17,17,12,8.70
2015,02,17,17,13,8.70
2015,02,17,17,14,8.70
2015,02,17,17,15,8.60
2015,02,17,17,16,8.60
2015,02,17,17,17,8.50
2015,02,17,17,18,8.40
2015,02,17,17,19,8.40
2015,02,17,17,20,8.30
2015,02,17,17,21,8.30
2015,02,17,17,22,8.20
2015,02,17,17,23,8.10
2015,02,17,17,24,8.10
2015,02,17,17,25,8.10
2015,02,17,17,26,8.00
2015,02,17,17,27,8.00
2015,02,17,17,28,7.90
2015,02,17,17,29,7.90
2015,02,17,17,30,7.90
2015,02,17,17,31,7.80
2015,02,17,17,32,7.80
2015,02,17,17,33,7.80